[Date Prev][Date Next][Thread Prev][Thread Next] - [Date Index][Thread Index][Author Index]
2 Line ISS Keps 11-15
- Subject: [sarex] 2 Line ISS Keps 11-15
- From: "Dave Larsen PhD" <doc@xxxxxxxxxxx>
- Date: Thu, 15 Nov 2001 03:01:25 -0800
ISS
1 25544U 98067A 01319.19049870 .00072487 00000-0 84142-3 0 7215
2 25544 51.6421 49.2877 0009589 336.4993 112.7963 15.61053349170640
----
Via the sarex mailing list at AMSAT.ORG courtesy of AMSAT-NA.
To unsubscribe, send "unsubscribe sarex" to Majordomo@amsat.org
AMSAT Home